timestamp,wind_dir_avg,wind_spd_avg,wind_spd_max_dir,wind_spd_gust,battery_voltage,lat,long
2019-12-23 00:04:01+00:00,11.0,3.68,28.0,4.53,12.57,47.59359,-54.27349
2019-12-23 00:14:01+00:00,19.0,3.8,19.0,4.59,12.57,47.59359,-54.27349
2019-12-23 00:24:01+00:00,336.0,3.1,349.0,4.04,12.57,47.59359,-54.27349
2019-12-23 00:34:01+00:00,339.0,3.35,344.0,4.11,12.57,47.59359,-54.27349
2019-12-23 00:44:01+00:00,345.0,4.06,345.0,5.0,12.57,47.59359,-54.27349
2019-12-23 00:54:01+00:00,1.0,4.3,10.0,5.11,12.57,47.59359,-54.27349
2019-12-23 01:04:01+00:00,9.0,4.26,16.0,5.02,12.57,47.59359,-54.27349
2019-12-23 01:14:01+00:00,349.0,3.83,355.0,4.76,12.49,47.59359,-54.27349
2019-12-23 01:24:01+00:00,357.0,3.75,0.0,4.45,12.49,47.59359,-54.27349
2019-12-23 01:34:01+00:00,1.0,4.24,355.0,5.25,12.49,47.59359,-54.27349
2019-12-23 01:44:01+00:00,3.0,3.33,4.0,4.12,12.49,47.59359,-54.27349
2019-12-23 01:54:01+00:00,10.0,4.21,18.0,4.94,12.49,47.59359,-54.27349
2019-12-23 02:04:01+00:00,0.0,4.4,358.0,5.54,12.49,47.59359,-54.27349
2019-12-23 02:14:01+00:00,8.0,5.75,4.0,7.12,12.49,47.59359,-54.27349
2019-12-23 02:24:01+00:00,2.0,4.78,354.0,5.88,12.49,47.59359,-54.27349
2019-12-23 02:34:01+00:00,4.0,4.63,6.0,5.48,12.49,47.59359,-54.27349
2019-12-23 02:44:01+00:00,339.0,4.11,340.0,5.14,12.49,47.59359,-54.27349
2019-12-23 02:54:01+00:00,340.0,4.74,340.0,5.56,12.49,47.59359,-54.27349
2019-12-23 03:04:01+00:00,350.0,4.11,359.0,4.95,12.49,47.59359,-54.27349
2019-12-23 03:14:01+00:00,2.0,4.3,4.0,5.05,12.49,47.59359,-54.27349
2019-12-23 03:24:01+00:00,353.0,3.83,349.0,4.71,12.49,47.59359,-54.27349
2019-12-23 03:34:01+00:00,343.0,4.01,348.0,4.95,12.49,47.59359,-54.27349
2019-12-23 03:44:01+00:00,354.0,3.76,0.0,4.65,12.49,47.59359,-54.27349
2019-12-23 03:54:01+00:00,343.0,3.62,343.0,4.56,12.49,47.59359,-54.27349
2019-12-23 04:04:01+00:00,351.0,3.57,359.0,4.18,12.49,47.59359,-54.27349
2019-12-23 04:14:01+00:00,356.0,3.94,9.0,4.85,12.49,47.59359,-54.27349
2019-12-23 04:24:01+00:00,5.0,3.34,9.0,3.89,12.49,47.59359,-54.27349
2019-12-23 04:34:01+00:00,18.0,3.14,17.0,3.77,12.49,47.59359,-54.27349
2019-12-23 04:44:01+00:00,4.0,3.25,14.0,3.86,12.49,47.59359,-54.27349
2019-12-23 04:54:01+00:00,31.0,3.02,30.0,3.46,12.49,47.59359,-54.27349
2019-12-23 05:04:01+00:00,6.0,2.43,357.0,2.99,12.49,47.59359,-54.27349
2019-12-23 05:14:01+00:00,328.0,2.07,302.0,2.91,12.41,47.59359,-54.27349
2019-12-23 05:24:01+00:00,39.0,2.12,29.0,2.96,12.41,47.59359,-54.27349
2019-12-23 05:34:01+00:00,8.0,1.98,3.0,2.67,12.41,47.59359,-54.27349
2019-12-23 05:44:01+00:00,327.0,2.15,337.0,2.91,12.41,47.59359,-54.27349
2019-12-23 05:54:01+00:00,319.0,2.02,322.0,2.74,12.41,47.59359,-54.27349
2019-12-23 06:04:01+00:00,349.0,2.07,343.0,2.68,12.41,47.59359,-54.27349
2019-12-23 06:14:01+00:00,340.0,1.96,340.0,2.47,12.41,47.59359,-54.27349
2019-12-23 06:24:01+00:00,343.0,1.23,338.0,2.57,12.41,47.59359,-54.27349
2019-12-23 06:34:01+00:00,329.0,0.53,349.0,1.18,12.41,47.59359,-54.27349
2019-12-23 06:44:01+00:00,29.0,2.4,24.0,3.07,12.41,47.59359,-54.27349
2019-12-23 06:54:01+00:00,6.0,1.69,354.0,2.67,12.41,47.59359,-54.27349
2019-12-23 07:04:01+00:00,342.0,2.02,335.0,2.92,12.41,47.59359,-54.27349
2019-12-23 07:14:01+00:00,351.0,2.02,6.0,2.66,12.41,47.59359,-54.27349
2019-12-23 07:24:01+00:00,54.0,1.08,51.0,1.5,12.41,47.59359,-54.27349
2019-12-23 07:34:01+00:00,42.0,2.22,49.0,3.02,12.41,47.59359,-54.27349
2019-12-23 07:44:01+00:00,21.0,2.52,19.0,3.03,12.41,47.59359,-54.27349
2019-12-23 07:54:01+00:00,38.0,2.33,44.0,3.16,12.41,47.59359,-54.27349
2019-12-23 08:04:01+00:00,8.0,2.15,7.0,2.91,12.41,47.59359,-54.27349
2019-12-23 08:14:01+00:00,12.0,2.05,15.0,2.65,12.41,47.59359,-54.27349
2019-12-23 08:24:01+00:00,28.0,1.04,10.0,1.7,12.41,47.59359,-54.27349
2019-12-23 08:34:01+00:00,34.0,2.01,36.0,2.54,12.41,47.59359,-54.27349
2019-12-23 08:44:01+00:00,50.0,0.71,58.0,1.4,12.41,47.59359,-54.27349
2019-12-23 08:54:01+00:00,97.0,0.63,76.0,0.86,12.41,47.59359,-54.27349
2019-12-23 09:04:01+00:00,46.0,1.11,57.0,1.92,12.41,47.59359,-54.27349
2019-12-23 09:14:01+00:00,54.0,1.79,46.0,2.19,12.41,47.59359,-54.27349
2019-12-23 09:24:01+00:00,79.0,1.33,59.0,1.94,12.41,47.59359,-54.27349
2019-12-23 09:34:01+00:00,22.0,2.64,32.0,4.12,12.41,47.59359,-54.27349
2019-12-23 09:44:01+00:00,61.0,1.62,51.0,2.51,12.41,47.59359,-54.27349
2019-12-23 09:54:01+00:00,96.0,1.32,92.0,1.99,12.41,47.59359,-54.27349
2019-12-23 10:04:01+00:00,65.0,2.09,74.0,2.86,12.41,47.59359,-54.27349
2019-12-23 10:14:01+00:00,76.0,2.87,71.0,3.61,12.41,47.59359,-54.27349
2019-12-23 10:24:01+00:00,131.0,1.99,131.0,2.77,12.41,47.59359,-54.27349
2019-12-23 10:34:01+00:00,114.0,1.8,116.0,2.32,12.41,47.59359,-54.27349
2019-12-23 10:44:01+00:00,80.0,1.45,77.0,1.91,12.41,47.59359,-54.27349
2019-12-23 10:54:01+00:00,91.0,1.94,101.0,2.37,12.41,47.59359,-54.27349
2019-12-23 11:04:01+00:00,107.0,1.62,108.0,2.13,12.41,47.59359,-54.27349
2019-12-23 11:14:01+00:00,166.0,0.97,157.0,1.22,12.41,47.59359,-54.27349
2019-12-23 11:24:01+00:00,100.0,2.16,102.0,2.49,12.41,47.59359,-54.27349
2019-12-23 11:34:01+00:00,113.0,0.88,97.0,1.38,12.41,47.59359,-54.27349
2019-12-23 11:44:01+00:00,106.0,1.62,113.0,1.99,12.41,47.59359,-54.27349
2019-12-23 11:54:01+00:00,109.0,1.7,110.0,1.98,12.41,47.59359,-54.27349
2019-12-23 12:04:01+00:00,24.0,2.06,30.0,2.88,12.41,47.59359,-54.27349
2019-12-23 12:14:01+00:00,33.0,2.13,41.0,2.74,13.05,47.59359,-54.27349
2019-12-23 12:24:01+00:00,87.0,1.82,71.0,2.6,13.05,47.59359,-54.27349
2019-12-23 12:34:01+00:00,27.0,2.57,33.0,3.11,13.05,47.59359,-54.27349
2019-12-23 12:44:01+00:00,71.0,2.68,90.0,3.45,13.05,47.59359,-54.27349
2019-12-23 12:54:01+00:00,48.0,1.91,42.0,2.4,13.05,47.59359,-54.27349
2019-12-23 13:04:01+00:00,117.0,1.27,138.0,1.9,13.05,47.59359,-54.27349
2019-12-23 13:14:01+00:00,63.0,1.48,63.0,1.94,13.6,47.59359,-54.27349
2019-12-23 13:24:01+00:00,80.0,1.86,82.0,2.4,13.6,47.59359,-54.27349
2019-12-23 13:34:01+00:00,75.0,1.56,75.0,2.05,13.6,47.59359,-54.27349
2019-12-23 13:44:01+00:00,123.0,0.92,148.0,1.26,13.6,47.59359,-54.27349
2019-12-23 13:54:01+00:00,131.0,0.58,146.0,1.5,13.6,47.59359,-54.27349
2019-12-23 14:04:01+00:00,99.0,0.66,94.0,1.11,13.6,47.59359,-54.27349
2019-12-23 14:14:01+00:00,87.0,1.93,86.0,2.41,13.84,47.59359,-54.27349
2019-12-23 14:24:01+00:00,92.0,1.41,99.0,2.28,13.84,47.59359,-54.27349
2019-12-23 14:34:01+00:00,77.0,2.06,85.0,2.93,13.84,47.59359,-54.27349
2019-12-23 14:44:01+00:00,76.0,1.41,86.0,1.85,13.84,47.59359,-54.27349
2019-12-23 14:54:01+00:00,68.0,2.39,74.0,2.73,13.84,47.59359,-54.27349
2019-12-23 15:04:01+00:00,61.0,2.17,55.0,2.87,13.84,47.59359,-54.27349
2019-12-23 15:14:01+00:00,61.0,2.07,65.0,2.6,13.68,47.59359,-54.27349
2019-12-23 15:24:01+00:00,81.0,2.26,87.0,3.61,13.68,47.59359,-54.27349
2019-12-23 15:34:01+00:00,59.0,2.62,74.0,3.83,13.68,47.59359,-54.27349
2019-12-23 15:44:01+00:00,58.0,3.11,45.0,3.72,13.68,47.59359,-54.27349
2019-12-23 15:54:01+00:00,62.0,1.91,70.0,2.52,13.68,47.59359,-54.27349
2019-12-23 16:04:01+00:00,76.0,1.96,85.0,2.42,13.68,47.59359,-54.27349
2019-12-23 16:14:01+00:00,65.0,1.69,63.0,2.52,13.6,47.59359,-54.27349
2019-12-23 16:24:01+00:00,78.0,2.13,76.0,2.71,13.6,47.59359,-54.27349
2019-12-23 16:34:01+00:00,56.0,1.39,57.0,1.84,13.6,47.59359,-54.27349
2019-12-23 16:44:01+00:00,66.0,2.15,70.0,2.61,13.6,47.59359,-54.27349
2019-12-23 16:54:01+00:00,64.0,1.91,59.0,2.37,13.6,47.59359,-54.27349
2019-12-23 17:04:01+00:00,62.0,1.83,43.0,2.34,13.6,47.59359,-54.27349
2019-12-23 17:14:01+00:00,53.0,2.23,48.0,2.74,13.68,47.59359,-54.27349
2019-12-23 17:24:01+00:00,58.0,2.36,62.0,2.91,13.68,47.59359,-54.27349
2019-12-23 17:34:01+00:00,77.0,3.17,75.0,3.86,13.68,47.59359,-54.27349
2019-12-23 17:44:01+00:00,52.0,3.1,53.0,3.35,13.68,47.59359,-54.27349
2019-12-23 17:54:01+00:00,79.0,2.11,89.0,2.81,13.68,47.59359,-54.27349
2019-12-23 18:04:01+00:00,89.0,1.7,86.0,2.46,13.68,47.59359,-54.27349
2019-12-23 18:14:01+00:00,75.0,2.3,71.0,3.12,13.21,47.59359,-54.27349
2019-12-23 18:24:01+00:00,90.0,2.22,104.0,3.05,13.21,47.59359,-54.27349
2019-12-23 18:34:01+00:00,81.0,2.63,82.0,3.44,13.21,47.59359,-54.27349
2019-12-23 18:44:01+00:00,86.0,2.92,85.0,3.54,13.21,47.59359,-54.27349
2019-12-23 18:54:01+00:00,136.0,2.1,137.0,2.54,13.21,47.59359,-54.27349
2019-12-23 19:04:01+00:00,141.0,2.1,144.0,3.09,13.21,47.59359,-54.27349
2019-12-23 19:14:01+00:00,137.0,1.38,141.0,1.97,12.81,47.59359,-54.27349
2019-12-23 19:24:01+00:00,148.0,1.88,137.0,2.35,12.81,47.59359,-54.27349
2019-12-23 19:34:01+00:00,119.0,1.24,129.0,1.71,12.81,47.59359,-54.27349
2019-12-23 19:44:01+00:00,97.0,0.8,88.0,1.2,12.81,47.59359,-54.27349
2019-12-23 19:54:01+00:00,82.0,2.07,74.0,2.39,12.81,47.59359,-54.27349
2019-12-23 20:04:01+00:00,84.0,2.33,78.0,3.38,12.81,47.59359,-54.27349
2019-12-23 20:14:01+00:00,91.0,2.4,98.0,3.04,12.65,47.59359,-54.27349
2019-12-23 20:24:01+00:00,105.0,1.7,96.0,2.25,12.65,47.59359,-54.27349
2019-12-23 20:34:01+00:00,80.0,1.53,61.0,2.21,12.65,47.59359,-54.27349
2019-12-23 20:44:01+00:00,88.0,2.0,98.0,2.57,12.65,47.59359,-54.27349
2019-12-23 20:54:01+00:00,94.0,2.04,85.0,3.2,12.65,47.59359,-54.27349
2019-12-23 21:04:01+00:00,89.0,2.56,77.0,3.73,12.65,47.59359,-54.27349
2019-12-23 21:14:01+00:00,81.0,3.83,80.0,4.37,12.65,47.59359,-54.27349
2019-12-23 21:24:01+00:00,82.0,3.62,88.0,4.34,12.65,47.59359,-54.27349
2019-12-23 21:34:01+00:00,87.0,4.41,78.0,5.95,12.65,47.59359,-54.27349
2019-12-23 21:44:01+00:00,86.0,3.33,89.0,4.22,12.65,47.59359,-54.27349
2019-12-23 21:54:01+00:00,81.0,4.05,80.0,4.95,12.65,47.59359,-54.27349
2019-12-23 22:04:01+00:00,92.0,3.1,91.0,4.34,12.65,47.59359,-54.27349
2019-12-23 22:14:01+00:00,86.0,3.59,91.0,4.73,12.57,47.59359,-54.27349
2019-12-23 22:24:01+00:00,74.0,2.9,72.0,3.38,12.57,47.59359,-54.27349
2019-12-23 22:34:01+00:00,87.0,2.98,79.0,3.54,12.57,47.59359,-54.27349
2019-12-23 22:44:01+00:00,85.0,2.61,75.0,3.0,12.57,47.59359,-54.27349
2019-12-23 22:54:01+00:00,83.0,3.01,79.0,3.51,12.57,47.59359,-54.27349
2019-12-23 23:04:01+00:00,83.0,2.82,77.0,3.66,12.57,47.59359,-54.27349
2019-12-23 23:14:01+00:00,85.0,2.84,82.0,3.42,12.57,47.59359,-54.27349
2019-12-23 23:24:01+00:00,75.0,2.38,72.0,2.84,12.57,47.59359,-54.27349
2019-12-23 23:34:01+00:00,77.0,3.28,76.0,3.87,12.57,47.59359,-54.27349
2019-12-23 23:44:01+00:00,75.0,3.0,79.0,4.01,12.57,47.59359,-54.27349
2019-12-23 23:54:01+00:00,86.0,2.95,78.0,4.29,12.57,47.59359,-54.27349
